Weather History for Trinity Center, CA

Change the Weather History Date:

Wednesday, March 13, 2013

  Actual Average (KMHS) Record (KMHS)
Temperature  
Mean Temperature 50 °F 42 °F  
Max Temperature 68 °F 54 °F 74 °F (1934)
Min Temperature 32 °F 30 °F 13 °F (1990)
Degree Days  
Heating Degree Days 15 23  
Month to date heating degree days 312  
Since 1 July heating degree days 4287  
Cooling Degree Days 0 0  
Month to date cooling degree days 0  
Year to date cooling degree days 0  
Moisture  
Dew Point 37 °F    
Average Humidity 72    
Maximum Humidity 100    
Minimum Humidity 33    
Precipitation  
Precipitation 0.00 in 0.22 in 2.40 in (1919)
Month to date precipitation 3.09  
Year to date precipitation 17.38  
Sea Level Pressure  
Sea Level Pressure 30.26 in    
Wind  
Wind Speed 2 mph (West)    
Max Wind Speed 8 mph    
Max Gust Speed -    
Visibility 10 miles    
Events      
T = Trace of Precipitation, MM = Missing Value Source: NWS Daily Summary

Daily Weather History Graph

Daily Weather History Graph

Search for Another Location

Airport:

Trip Planner

Search our weather history database for the weather conditions in past years. The results will help you decide how hot, cold, wet, or windy it might be!

Date:

Astronomy

Mar. 13, 2013 Rise Set
Actual Time 7:25 AM PDT 7:15 PM PDT
Civil Twilight 6:57 AM PDT 7:43 PM PDT
Nautical Twilight 6:25 AM PDT 8:15 PM PDT
Astronomical Twilight 5:53 AM PDT 8:47 PM PDT
Moon 8:06 AM PDT (3/13) 9:39 PM PDT (3/13)
Length of Visible Light 12h 45m
Length of Day
11h 50m
Waxing Crescent, 4% of the Moon is Illuminated
Mar 13
Waxing Crescent
Mar 19
First Quarter
Mar 27
Full
Apr 2
Last Quarter
Apr 10
New

Hourly Weather History & Observations

Time (PDT) Temp. Windchill Dew Point Humidity Pressure Visibility Wind Dir Wind Speed Gust Speed Precip Events Conditions
12:15 AM 39.2 °F 35.9 °F 37.4 °F 93% 30.27 in 10.0 mi WNW 4.6 mph - N/A   Clear
12:35 AM 41.0 °F 39.0 °F 37.4 °F 87% 30.28 in 10.0 mi West 3.5 mph - N/A   Clear
12:55 AM 39.2 °F - 35.6 °F 87% 30.28 in 10.0 mi Calm Calm - N/A   Clear
1:15 AM 37.4 °F 34.9 °F 35.6 °F 93% 30.28 in 10.0 mi West 3.5 mph - N/A   Clear
1:35 AM 39.2 °F 37.0 °F 35.6 °F 87% 30.28 in 10.0 mi WNW 3.5 mph - N/A   Clear
1:55 AM 37.4 °F 34.9 °F 35.6 °F 93% 30.28 in 10.0 mi West 3.5 mph - N/A   Clear
2:15 AM 37.4 °F 34.9 °F 35.6 °F 93% 30.29 in 10.0 mi West 3.5 mph - N/A   Clear
2:35 AM 35.6 °F - 33.8 °F 93% 30.29 in 9.0 mi Calm Calm - N/A   Clear
2:55 AM 35.6 °F 32.8 °F 33.8 °F 93% 30.29 in 10.0 mi West 3.5 mph - N/A   Clear
3:15 AM 35.6 °F - 33.8 °F 93% 30.29 in 10.0 mi Calm Calm - N/A   Clear
3:35 AM 35.6 °F 32.8 °F 33.8 °F 93% 30.29 in 10.0 mi West 3.5 mph - N/A   Clear
3:55 AM 35.6 °F - 33.8 °F 93% 30.29 in 10.0 mi Calm Calm - N/A   Clear
4:15 AM 35.6 °F 32.8 °F 32.0 °F 87% 30.29 in 9.0 mi West 3.5 mph - N/A   Clear
4:35 AM 35.6 °F - 32.0 °F 87% 30.29 in 9.0 mi Calm Calm - N/A   Clear
4:55 AM 33.8 °F - 32.0 °F 93% 30.28 in 10.0 mi Calm Calm - N/A   Clear
5:15 AM 33.8 °F 30.8 °F 32.0 °F 93% 30.28 in 10.0 mi West 3.5 mph - N/A   Clear
5:35 AM 33.8 °F 29.6 °F 32.0 °F 93% 30.29 in 10.0 mi WNW 4.6 mph - N/A   Clear
5:55 AM 33.8 °F - 32.0 °F 93% 30.29 in 10.0 mi Calm Calm - N/A   Clear
6:15 AM 33.8 °F - 32.0 °F 93% 30.30 in 10.0 mi Calm Calm - N/A   Clear
6:35 AM 32.0 °F 28.7 °F 32.0 °F 100% 30.29 in 9.0 mi West 3.5 mph - N/A   Clear
6:55 AM 32.0 °F - 32.0 °F 100% 30.30 in 10.0 mi Calm Calm - N/A   Clear
7:15 AM 32.0 °F 28.7 °F 32.0 °F 100% 30.30 in 10.0 mi WNW 3.5 mph - N/A   Clear
7:35 AM 32.0 °F 28.7 °F 32.0 °F 100% 30.30 in 10.0 mi West 3.5 mph - N/A   Clear
7:55 AM 32.0 °F 27.5 °F 32.0 °F 100% 30.30 in 10.0 mi West 4.6 mph - N/A   Clear
8:15 AM 35.6 °F - 32.0 °F 87% 30.30 in 10.0 mi Calm Calm - N/A   Clear
8:35 AM 39.2 °F - 35.6 °F 87% 30.30 in 10.0 mi Calm Calm - N/A   Clear
8:55 AM 39.2 °F - 35.6 °F 87% 30.31 in 10.0 mi Calm Calm - N/A   Clear
9:15 AM 39.2 °F - 35.6 °F 87% 30.31 in 10.0 mi Calm Calm - N/A   Clear
9:35 AM 39.2 °F - 37.4 °F 93% 30.31 in 10.0 mi Calm Calm - N/A   Clear
9:55 AM 42.8 °F 41.1 °F 37.4 °F 81% 30.31 in 10.0 mi ENE 3.5 mph - N/A   Clear
10:15 AM 44.6 °F - 37.4 °F 76% 30.31 in 10.0 mi Calm Calm - N/A   Clear
10:35 AM 44.6 °F 43.1 °F 37.4 °F 76% 30.30 in 10.0 mi SE 3.5 mph - N/A   Clear
10:55 AM 46.4 °F - 35.6 °F 66% 30.30 in 10.0 mi Calm Calm - N/A   Clear
11:15 AM 48.2 °F - 35.6 °F 62% 30.30 in 10.0 mi Calm Calm - N/A   Clear
11:35 AM 50.0 °F - 37.4 °F 62% 30.29 in 10.0 mi Calm Calm - N/A   Clear
11:55 AM 53.6 °F - 37.4 °F 54% 30.29 in 10.0 mi Calm Calm - N/A   Clear
12:15 PM 53.6 °F - 37.4 °F 54% 30.28 in 10.0 mi Calm Calm - N/A   Clear
12:35 PM 53.6 °F - 39.2 °F 58% 30.28 in 10.0 mi SE 3.5 mph - N/A   Clear
12:55 PM 55.4 °F - 35.6 °F 47% 30.28 in 10.0 mi Calm Calm - N/A   Clear
1:15 PM 57.2 °F - 37.4 °F 48% 30.27 in 10.0 mi Calm Calm - N/A   Clear
1:35 PM 59.0 °F - 37.4 °F 45% 30.26 in 10.0 mi Calm Calm - N/A   Clear
1:50 PM 62.6 °F - 37.4 °F 39% 30.25 in 10.0 mi Calm Calm - N/A   Clear
2:15 PM 64.4 °F - 37.4 °F 37% 30.24 in 10.0 mi Calm Calm - N/A   Clear
2:35 PM 66.2 °F - 39.2 °F 37% 30.22 in 10.0 mi SE 3.5 mph - N/A   Clear
2:55 PM 66.2 °F - 39.2 °F 37% 30.21 in 10.0 mi ENE 3.5 mph - N/A   Clear
3:15 PM 66.2 °F - 42.8 °F 43% 30.21 in 10.0 mi Calm Calm - N/A   Clear
3:35 PM 68.0 °F - 41.0 °F 37% 30.21 in 10.0 mi ENE 3.5 mph - N/A   Clear
3:55 PM 68.0 °F - 41.0 °F 37% 30.20 in 10.0 mi Calm Calm - N/A   Clear
4:15 PM 68.0 °F - 39.2 °F 35% 30.20 in 10.0 mi Calm Calm - N/A   Clear
4:35 PM 68.0 °F - 41.0 °F 37% 30.20 in 10.0 mi Calm Calm - N/A   Clear
4:55 PM 68.0 °F - 37.4 °F 33% 30.19 in 10.0 mi Calm Calm - N/A   Clear
5:15 PM 68.0 °F - 41.0 °F 37% 30.18 in 10.0 mi Calm Calm - N/A   Clear
5:35 PM 68.0 °F - 37.4 °F 33% 30.18 in 10.0 mi Calm Calm - N/A   Clear
5:55 PM 68.0 °F - 37.4 °F 33% 30.18 in 10.0 mi Calm Calm - N/A   Clear
6:15 PM 64.4 °F - 44.6 °F 49% 30.18 in 10.0 mi Calm Calm - N/A   Clear
6:35 PM 62.6 °F - 46.4 °F 55% 30.18 in 10.0 mi Calm Calm - N/A   Clear
6:55 PM 59.0 °F - 42.8 °F 55% 30.18 in 10.0 mi West 6.9 mph - N/A   Clear
7:15 PM 57.2 °F - 41.0 °F 55% 30.19 in 10.0 mi West 8.1 mph - N/A   Clear
7:35 PM 55.4 °F - 41.0 °F 58% 30.19 in 10.0 mi West 5.8 mph - N/A   Clear
7:55 PM 55.4 °F - 41.0 °F 58% 30.19 in 10.0 mi West 3.5 mph - N/A   Clear
8:15 PM 53.6 °F - 41.0 °F 62% 30.20 in 10.0 mi WNW 4.6 mph - N/A   Clear
8:35 PM 50.0 °F - 41.0 °F 71% 30.21 in 10.0 mi Calm Calm - N/A   Clear
8:55 PM 50.0 °F - 41.0 °F 71% 30.21 in 10.0 mi Calm Calm - N/A   Clear
9:15 PM 48.2 °F - 41.0 °F 76% 30.21 in 10.0 mi West 3.5 mph - N/A   Clear
9:35 PM 46.4 °F 44.3 °F 41.0 °F 81% 30.23 in 10.0 mi West 4.6 mph - N/A   Clear
9:55 PM 46.4 °F - 39.2 °F 76% 30.23 in 10.0 mi Calm Calm - N/A   Clear
10:15 PM 46.4 °F 45.2 °F 41.0 °F 81% 30.24 in 10.0 mi West 3.5 mph - N/A   Clear
10:35 PM 46.4 °F - 41.0 °F 81% 30.24 in 10.0 mi Calm Calm - N/A   Clear
10:55 PM 46.4 °F - 41.0 °F 81% 30.25 in 10.0 mi Calm Calm - N/A   Clear
11:15 PM 44.6 °F - 41.0 °F 87% 30.25 in 7.0 mi Calm Calm - N/A   Clear
11:35 PM 44.6 °F - 41.0 °F 87% 30.24 in 7.0 mi Calm Calm - N/A   Clear
11:55 PM 44.6 °F - 41.0 °F 87% 30.24 in 8.0 mi Calm Calm - N/A   Clear